FW9588 Weather Reports


Display with metric or nautical units.
time (UTC)temp
F
wind
direction
speed
MPH
gust
MPH
rain 1hr
in
rain 24hr
in
rain mn
in
humidity
%
barometer
mb
20260906093823 66 49 0.0 0.0 0.00 0.00 0.00 98 1018.0
20260906093319 66 49 0.0 0.0 0.00 0.00 0.00 98 1017.8
20260906092814 66 49 0.0 0.0 0.00 0.00 0.00 98 1017.6
20260906092308 66 49 0.0 0.0 0.00 0.00 0.00 98 1017.7
20260906091804 66 49 0.0 0.0 0.00 0.00 0.00 97 1017.8
20260906091300 66 49 0.0 0.0 0.00 0.00 0.00 97 1018.0
20260906090756 67 49 0.0 0.0 0.00 0.00 0.00 97 1017.9
20260906090255 67 50 0.0 0.0 0.00 0.00 0.00 97 1017.8
20260906085754 67 52 0.0 0.0 0.00 0.00 0.00 97 1017.8
20260906085253 67 52 0.0 0.0 0.00 0.00 0.00 97 1017.7
20260906084743 67 51 0.0 0.0 0.00 0.00 0.00 97 1017.8
20260906084242 67 51 0.0 0.0 0.00 0.00 0.00 96 1017.7
20260906083737 67 55 0.0 0.0 0.00 0.00 0.00 96 1017.6
20260906083233 68 55 0.0 0.0 0.00 0.00 0.00 96 1017.5
20260906082728 68 55 0.0 0.0 0.00 0.00 0.00 96 1017.6
20260906082223 68 55 0.0 0.0 0.00 0.00 0.00 96 1017.6
20260906081719 68 56 0.0 0.0 0.00 0.00 0.00 95 1017.4
20260906081213 68 57 0.0 0.0 0.00 0.00 0.00 95 1017.2
20260906080710 68 60 0.0 0.0 0.00 0.00 0.00 94 1017.7
20260906080206 68 60 0.0 0.0 0.00 0.00 0.00 94 1017.4
20260906075700 69 50 0.0 0.0 0.00 0.00 0.00 94 1017.6
20260906075154 69 48 0.0 0.0 0.00 0.00 0.00 94 1017.3
20260906074650 69 63 0.0 0.0 0.00 0.00 0.00 93 1017.3
20260906074149 69 63 0.0 0.0 0.00 0.00 0.00 93 1017.5
20260906073644 69 65 0.0 0.0 0.00 0.00 0.00 93 1017.3
20260906073139 70 66 0.0 0.0 0.00 0.00 0.00 93 1017.4
20260906072634 70 66 0.0 0.0 0.00 0.00 0.00 93 1017.4
20260906072130 70 65 0.0 0.0 0.00 0.00 0.00 93 1017.4
20260906071627 70 78 0.0 0.0 0.00 0.00 0.00 93 1017.3
20260906071127 70 90 0.0 0.0 0.00 0.00 0.00 93 1017.5
20260906070623 70 36 0.0 0.0 0.00 0.00 0.00 93 1017.7
20260906070118 70 38 0.0 0.0 0.00 0.00 0.00 92 1017.7
20260906065618 70 65 0.0 0.0 0.00 0.00 0.00 92 1017.6
20260906065114 70 33 0.0 0.0 0.00 0.00 0.00 92 1017.5
20260906064609 70 26 0.0 1.0 0.00 0.00 0.00 92 1017.6
20260906064104 70 34 0.0 0.0 0.00 0.00 0.00 92 1017.5
20260906063559 71 34 0.0 0.0 0.00 0.00 0.00 92 1017.6
20260906063055 71 33 0.0 0.0 0.00 0.00 0.00 92 1017.6
20260906062550 71 67 0.0 0.0 0.00 0.00 0.00 92 1017.6
20260906062044 71 38 0.0 0.0 0.00 0.00 0.00 92 1017.4
20260906061541 71 48 0.0 0.0 0.00 0.00 0.00 92 1017.5
20260906061040 71 55 0.0 0.0 0.00 0.00 0.00 92 1017.6
20260906060536 72 65 0.0 0.0 0.00 0.00 0.00 92 1017.5
20260906060034 72 8 0.0 0.0 0.00 0.00 0.00 92 1017.3
20260906055529 72 9 0.0 0.0 0.00 0.00 0.00 92 1017.2
20260906055024 72 9 0.0 0.0 0.00 0.00 0.00 92 1017.2
20260906054524 72 11 0.0 0.0 0.00 0.00 0.00 92 1017.0
20260906054020 72 16 0.0 0.0 0.00 0.00 0.00 92 1017.1
20260906053516 72 16 0.0 0.0 0.00 0.00 0.00 92 1017.0
20260906053011 72 16 0.0 0.0 0.00 0.00 0.00 92 1017.0
20260906052507 72 16 0.0 0.0 0.00 0.00 0.00 92 1017.0
20260906052004 72 16 0.0 0.0 0.00 0.00 0.00 92 1016.9
20260906051459 72 16 0.0 0.0 0.00 0.00 0.00 91 1017.0
20260906050955 72 8 0.0 0.0 0.00 0.00 0.00 91 1017.0
20260906050454 72 8 0.0 0.0 0.00 0.00 0.00 91 1016.8
20260906045954 72 8 0.0 0.0 0.00 0.00 0.00 91 1017.0
20260906045452 72 1 0.0 0.0 0.00 0.00 0.00 91 1016.8
20260906044949 72 1 0.0 0.0 0.00 0.00 0.00 90 1016.8
20260906044444 72 0 0.0 0.0 0.00 0.00 0.00 91 1016.8
20260906043939 72 0 0.0 0.0 0.00 0.00 0.00 91 1016.8
20260906043435 72 0 0.0 0.0 0.00 0.00 0.00 91 1017.0
20260906042931 72 0 0.0 0.0 0.00 0.00 0.00 90 1016.9
20260906042429 72 0 0.0 0.0 0.00 0.00 0.00 90 1016.8
20260906041919 72 0 0.0 0.0 0.00 0.00 0.00 90 1016.8
20260906041415 72 0 0.0 0.0 0.00 0.00 0.00 90 1016.8
20260906040914 72 0 0.0 0.0 0.00 0.00 0.00 90 1016.7
20260906040410 72 0 0.0 0.0 0.00 0.00 0.00 90 1017.0
20260906035905 73 0 0.0 0.0 0.00 0.00 0.00 90 1016.7
20260906035401 73 0 0.0 0.0 0.00 0.00 0.00 90 1016.8
20260906034856 73 0 0.0 0.0 0.00 0.00 0.00 90 1016.6
20260906034350 73 0 0.0 0.0 0.00 0.00 0.00 90 1016.8
20260906033846 73 2 0.0 0.0 0.00 0.00 0.00 90 1016.5
20260906033345 73 2 0.0 0.0 0.00 0.00 0.00 89 1016.5
20260906032842 73 2 0.0 0.0 0.00 0.00 0.00 89 1016.5
20260906032337 73 2 0.0 0.0 0.00 0.00 0.00 89 1016.6
20260906031832 73 2 0.0 0.0 0.00 0.00 0.00 89 1016.8
20260906031328 73 2 0.0 0.0 0.00 0.00 0.00 89 1016.5
20260906030827 73 2 0.0 0.0 0.00 0.00 0.00 89 1016.5
20260906030323 73 2 0.0 0.0 0.00 0.00 0.00 89 1016.5
20260906025817 73 2 0.0 0.0 0.00 0.00 0.00 89 1016.5
20260906025311 73 2 0.0 0.0 0.00 0.00 0.00 89 1016.5
20260906024810 73 2 0.0 0.0 0.00 0.00 0.00 89 1016.5
20260906024309 73 2 0.0 0.0 0.00 0.00 0.00 89 1016.5
20260906023805 73 359 0.0 0.0 0.00 0.00 0.00 88 1016.4
20260906023301 73 15 0.0 0.0 0.00 0.00 0.00 88 1016.4
20260906022756 73 15 0.0 0.0 0.00 0.00 0.00 88 1016.4
20260906022251 73 16 0.0 0.0 0.00 0.00 0.00 88 1016.4
20260906021747 73 15 0.0 0.0 0.00 0.00 0.00 88 1016.3
20260906021246 73 18 0.0 0.0 0.00 0.00 0.00 88 1016.3
20260906020741 73 19 0.0 0.0 0.00 0.00 0.00 88 1016.1
20260906020241 73 19 0.0 0.0 0.00 0.00 0.00 88 1016.2
20260906015735 74 1 0.0 0.0 0.00 0.00 0.00 88 1016.0
20260906015234 74 39 0.0 0.0 0.00 0.00 0.00 87 1016.0
20260906014729 74 43 0.0 0.0 0.00 0.00 0.00 88 1016.0
20260906014224 74 68 0.0 0.0 0.00 0.00 0.00 88 1016.0
20260906013721 74 32 0.0 0.0 0.00 0.00 0.00 88 1015.8
20260906013220 74 357 0.0 0.0 0.00 0.00 0.00 88 1016.1
20260906012715 74 47 0.0 0.0 0.00 0.00 0.00 88 1015.6
20260906012210 74 17 0.0 0.0 0.00 0.00 0.00 88 1015.9
20260906011705 74 47 0.0 0.0 0.00 0.00 0.00 88 1015.6
20260906011159 74 56 0.0 1.0 0.00 0.00 0.00 88 1015.6
20260906010655 74 17 0.0 0.0 0.00 0.00 0.00 88 1015.6
20260906010152 74 32 0.0 0.0 0.00 0.00 0.00 88 1015.8
20260906005651 74 29 0.0 1.0 0.00 0.00 0.00 88 1015.6
20260906005150 74 31 1.0 1.0 0.00 0.00 0.00 88 1015.6
20260906004649 75 20 1.0 1.0 0.00 0.00 0.00 88 1015.5
20260906004145 75 20 1.0 1.0 0.00 0.00 0.00 88 1015.2
20260906003640 75 27 2.0 2.0 0.00 0.00 0.00 88 1015.0
20260906003135 75 38 0.0 0.0 0.00 0.00 0.00 89 1015.5
20260906002630 75 69 0.0 0.0 0.00 0.00 0.00 88 1015.3
20260906002125 75 29 0.0 0.0 0.00 0.00 0.00 88 1015.3
20260906001621 76 15 0.0 0.0 0.00 0.00 0.00 88 1015.1
20260906001120 76 52 0.0 0.0 0.00 0.00 0.00 88 1015.1
20260906000616 76 83 0.0 1.0 0.00 0.00 0.00 88 1014.9
20260906000112 77 5 1.0 2.0 0.00 0.00 0.00 88 1014.9
20260905235610 77 43 0.0 0.0 0.00 0.00 0.00 88 1014.9
20260905235106 77 10 0.0 0.0 0.00 0.00 0.00 87 1014.9
20260905234601 77 30 0.0 0.0 0.00 0.00 0.00 87 1014.8
20260905234056 77 13 0.0 0.0 0.00 0.00 0.00 87 1014.8
20260905233556 78 31 0.0 1.0 0.00 0.00 0.00 86 1014.8
20260905233050 78 1 1.0 1.0 0.00 0.00 0.00 85 1014.7
20260905232546 79 46 0.0 0.0 0.00 0.00 0.00 85 1014.5
20260905232041 79 21 1.0 1.0 0.00 0.00 0.00 85 1014.4
20260905231536 79 5 1.0 1.0 0.00 0.00 0.00 85 1014.4
20260905231033 79 31 0.0 0.0 0.00 0.00 0.00 84 1014.1
20260905230532 80 43 0.0 1.0 0.00 0.00 0.00 83 1014.3
20260905230031 80 30 0.0 0.0 0.00 0.00 0.00 82 1014.3
20260905225525 80 19 1.0 1.0 0.00 0.00 0.00 83 1014.3
20260905225021 80 11 0.0 1.0 0.00 0.00 0.00 82 1014.1
20260905224515 81 43 1.0 1.0 0.00 0.00 0.00 81 1014.4
20260905224014 81 4 0.0 1.0 0.00 0.00 0.00 80 1014.2
20260905223512 82 358 0.0 1.0 0.00 0.00 0.00 78 1013.8
20260905223008 82 37 0.0 1.0 0.00 0.00 0.00 77 1013.9
20260905222502 82 13 0.0 0.0 0.00 0.00 0.00 78 1014.0
20260905221957 82 22 0.0 0.0 0.00 0.00 0.00 79 1013.8
20260905221454 81 260 1.0 1.0 0.00 0.00 0.00 80 1013.8
20260905220949 81 13 0.0 0.0 0.00 0.00 0.00 80 1013.7
20260905220445 81 11 0.0 0.0 0.00 0.00 0.00 79 1013.6
20260905215944 82 23 0.0 0.0 0.00 0.00 0.00 79 1013.6
20260905215440 83 27 2.0 3.0 0.00 0.00 0.00 77 1013.5
20260905214937 84 1 3.0 3.0 0.00 0.00 0.00 76 1013.4
20260905214432 84 2 0.0 0.0 0.00 0.00 0.00 76 1013.4
20260905213932 82 123 1.0 2.0 0.00 0.00 0.00 79 1013.6
20260905213428 83 359 0.0 1.0 0.00 0.00 0.00 78 1013.5
20260905212923 84 6 1.0 1.0 0.00 0.00 0.00 78 1013.6
20260905212418 84 349 0.0 0.0 0.00 0.00 0.00 76 1013.4
20260905211917 84 106 1.0 1.0 0.00 0.00 0.00 76 1013.5
20260905211412 85 1 2.0 2.0 0.00 0.00 0.00 76 1013.3
20260905210903 87 1 1.0 1.0 0.00 0.00 0.00 71 1013.5
20260905210403 86 3 0.0 0.0 0.00 0.00 0.00 73 1013.5
20260905205902 85 199 1.0 1.0 0.00 0.00 0.00 74 1013.5
20260905205357 85 139 3.0 3.0 0.00 0.00 0.00 74 1013.5
20260905204856 85 349 2.0 3.0 0.00 0.00 0.00 76 1013.4
20260905204353 85 22 1.0 2.0 0.00 0.00 0.00 74 1013.3
20260905203851 84 50 0.0 1.0 0.00 0.00 0.00 77 1013.5
20260905203347 86 351 0.0 0.0 0.00 0.00 0.00 75 1013.5
20260905202842 85 212 0.0 1.0 0.00 0.00 0.00 74 1013.6
20260905202337 85 7 0.0 0.0 0.00 0.00 0.00 76 1013.5
20260905201833 86 47 0.0 0.0 0.00 0.00 0.00 74 1013.2
20260905201328 87 12 1.0 1.0 0.00 0.00 0.00 71 1013.7
20260905200822 87 182 0.0 0.0 0.00 0.00 0.00 71 1013.5
20260905200319 86 349 1.0 1.0 0.00 0.00 0.00 73 1013.4
20260905195816 88 352 2.0 3.0 0.00 0.00 0.00 70 1013.5
20260905195311 88 12 1.0 2.0 0.00 0.00 0.00 71 1013.6
20260905194807 87 253 0.0 1.0 0.00 0.00 0.00 71 1013.7
20260905194301 86 103 0.0 0.0 0.00 0.00 0.00 73 1013.4
20260905193800 86 10 0.0 1.0 0.00 0.00 0.00 75 1013.8
20260905193255 86 339 3.0 3.0 0.00 0.00 0.00 73 1013.7
20260905192750 86 147 1.0 2.0 0.00 0.00 0.00 75 1013.6
20260905192247 86 124 1.0 2.0 0.00 0.00 0.00 74 1013.7
20260905191746 85 1 0.0 0.0 0.00 0.00 0.00 76 1013.8
20260905191244 86 1 2.0 3.0 0.00 0.00 0.00 74 1013.8
20260905190743 87 207 4.0 6.0 0.00 0.00 0.00 72 1013.9
20260905190243 86 115 0.0 0.0 0.00 0.00 0.00 74 1013.7
20260905185742 86 356 1.0 1.0 0.00 0.00 0.00 75 1013.6
20260905185237 87 83 1.0 2.0 0.00 0.00 0.00 72 1013.9
20260905184730 88 4 0.0 1.0 0.00 0.00 0.00 70 1013.9
20260905184230 87 345 2.0 2.0 0.00 0.00 0.00 73 1014.0
20260905183723 86 7 0.0 0.0 0.00 0.00 0.00 76 1014.1
20260905183219 85 23 0.0 0.0 0.00 0.00 0.00 77 1013.9
20260905182713 86 22 0.0 0.0 0.00 0.00 0.00 76 1014.0
20260905182213 86 308 0.0 1.0 0.00 0.00 0.00 75 1014.0
20260905181708 86 4 0.0 0.0 0.00 0.00 0.00 77 1013.9
20260905181207 86 147 0.0 0.0 0.00 0.00 0.00 75 1014.1
20260905180701 86 70 0.0 0.0 0.00 0.00 0.00 76 1014.0
20260905180157 85 336 0.0 1.0 0.00 0.00 0.00 78 1014.2
20260905175656 84 347 0.0 0.0 0.00 0.00 0.00 80 1014.2
20260905175151 84 335 0.0 0.0 0.00 0.00 0.00 80 1014.3
20260905174647 86 298 0.0 1.0 0.00 0.00 0.00 77 1014.3
20260905174142 84 193 2.0 2.0 0.00 0.00 0.00 78 1014.3
20260905173638 83 77 0.0 0.0 0.00 0.00 0.00 81 1014.5
20260905173134 83 301 2.0 2.0 0.00 0.00 0.00 82 1014.4
20260905172633 84 85 0.0 0.0 0.00 0.00 0.00 81 1014.4
20260905172128 83 110 0.0 0.0 0.00 0.00 0.00 81 1014.6
20260905171624 83 335 0.0 0.0 0.00 0.00 0.00 83 1014.4
20260905171120 82 163 1.0 1.0 0.00 0.00 0.00 83 1014.5
20260905170616 83 120 0.0 1.0 0.00 0.00 0.00 81 1014.7
20260905170111 83 149 0.0 0.0 0.00 0.00 0.00 82 1014.6
20260905165605 83 235 0.0 0.0 0.00 0.00 0.00 82 1014.7
20260905165101 84 182 2.0 2.0 0.00 0.00 0.00 80 1014.7
20260905164555 83 138 1.0 2.0 0.00 0.00 0.00 82 1014.9
20260905164050 82 138 0.0 0.0 0.00 0.00 0.00 83 1014.8
20260905163546 81 261 1.0 2.0 0.00 0.00 0.00 85 1014.6
20260905163042 80 19 1.0 1.0 0.00 0.00 0.00 86 1014.8
20260905162538 80 118 0.0 0.0 0.00 0.00 0.00 86 1014.8
20260905162037 80 109 0.0 0.0 0.00 0.00 0.00 86 1014.8
20260905161532 80 71 0.0 0.0 0.00 0.00 0.00 88 1014.8
20260905161030 79 84 0.0 0.0 0.00 0.00 0.00 88 1014.8
20260905160528 79 91 0.0 0.0 0.00 0.00 0.00 88 1014.6
20260905160028 79 87 1.0 1.0 0.00 0.00 0.00 87 1014.8
20260905155528 79 51 0.0 0.0 0.00 0.00 0.00 86 1014.9
20260905155027 79 5 0.0 0.0 0.00 0.00 0.00 86 1014.5
20260905154522 79 214 0.0 0.0 0.00 0.00 0.00 87 1014.8
20260905154018 79 79 0.0 0.0 0.00 0.00 0.00 87 1014.8
20260905153514 79 74 0.0 0.0 0.00 0.00 0.00 88 1014.8
20260905153014 79 44 0.0 0.0 0.00 0.00 0.00 89 1014.8
20260905152514 79 86 0.0 0.0 0.00 0.00 0.00 89 1014.7
20260905152008 79 83 0.0 0.0 0.00 0.00 0.00 90 1014.8
20260905151504 78 102 0.0 0.0 0.00 0.00 0.00 90 1014.6
20260905150959 78 46 0.0 0.0 0.00 0.00 0.00 90 1014.7
20260905150454 78 34 0.0 0.0 0.00 0.00 0.00 91 1014.5
20260905145950 77 36 0.0 1.0 0.00 0.00 0.00 91 1014.5
20260905145445 77 133 1.0 1.0 0.00 0.00 0.00 91 1014.5
20260905144944 77 93 0.0 0.0 0.00 0.00 0.00 92 1014.6
20260905144440 77 64 0.0 0.0 0.00 0.00 0.00 92 1014.7
20260905143938 77 60 0.0 0.0 0.00 0.00 0.00 92 1014.8
20260905143432 77 43 0.0 0.0 0.00 0.00 0.00 92 1014.9
20260905142927 77 76 0.0 0.0 0.00 0.00 0.00 92 1014.6
20260905142426 76 51 0.0 0.0 0.00 0.00 0.00 93 1014.8
20260905141922 76 27 0.0 0.0 0.00 0.00 0.00 93 1014.6
20260905141416 76 100 0.0 0.0 0.00 0.00 0.00 93 1014.5
20260905140912 76 60 0.0 0.0 0.00 0.00 0.00 93 1014.6
20260905140407 76 291 1.0 2.0 0.00 0.00 0.00 93 1014.6
20260905135906 76 79 0.0 0.0 0.00 0.00 0.00 93 1014.4
20260905135402 75 86 0.0 0.0 0.00 0.00 0.00 93 1014.5
20260905134857 75 50 0.0 0.0 0.00 0.00 0.00 94 1014.4
20260905134356 75 37 0.0 0.0 0.00 0.00 0.00 94 1014.5
20260905133850 75 36 0.0 0.0 0.00 0.00 0.00 95 1014.4
20260905133346 75 37 0.0 0.0 0.00 0.00 0.00 95 1014.4
20260905132845 75 39 0.0 0.0 0.00 0.00 0.00 95 1014.3
20260905132341 75 32 0.0 0.0 0.00 0.00 0.00 96 1014.4
20260905131840 75 32 0.0 0.0 0.00 0.00 0.00 96 1014.3
20260905131336 74 30 0.0 0.0 0.00 0.00 0.00 96 1014.2
20260905130831 74 27 0.0 0.0 0.00 0.00 0.00 96 1014.1
20260905130330 74 29 0.0 0.0 0.00 0.00 0.00 96 1014.0
20260905125825 74 12 1.0 1.0 0.00 0.00 0.00 96 1014.0
20260905125320 74 57 0.0 0.0 0.00 0.00 0.00 96 1014.0
20260905124816 74 37 0.0 0.0 0.00 0.00 0.00 95 1013.8
20260905124312 74 212 1.0 1.0 0.00 0.00 0.00 95 1013.9
20260905123807 73 69 0.0 0.0 0.00 0.00 0.00 95 1013.8
20260905123304 73 63 0.0 0.0 0.00 0.00 0.00 95 1013.7
20260905122803 73 76 0.0 0.0 0.00 0.00 0.00 95 1013.8
20260905122306 73 91 0.0 0.0 0.00 0.00 0.00 95 1013.8
20260905121759 73 90 0.0 1.0 0.00 0.00 0.00 94 1013.8
20260905121255 73 99 0.0 0.0 0.00 0.00 0.00 94 1013.6
20260905120753 73 143 2.0 2.0 0.00 0.00 0.00 94 1013.5
20260905120253 73 147 1.0 2.0 0.00 0.00 0.00 94 1013.5
20260905115749 73 110 0.0 0.0 0.00 0.00 0.00 94 1013.8
20260905115248 73 110 0.0 0.0 0.00 0.00 0.00 94 1013.5
20260905114748 73 110 0.0 0.0 0.00 0.00 0.00 94 1013.6
20260905114247 73 137 1.0 1.0 0.00 0.00 0.00 94 1013.4
20260905113746 73 138 1.0 2.0 0.00 0.00 0.00 93 1013.3
20260905113242 73 147 1.0 2.0 0.00 0.00 0.00 93 1013.2
20260905112737 73 113 1.0 2.0 0.00 0.00 0.00 93 1013.5
20260905112232 73 145 2.0 2.0 0.00 0.00 0.00 93 1013.2
20260905111727 73 152 2.0 2.0 0.00 0.00 0.00 94 1013.3
20260905111221 73 164 3.0 3.0 0.00 0.00 0.00 94 1013.1
20260905110720 73 118 1.0 1.0 0.00 0.00 0.00 95 1013.3
20260905110215 73 7 0.0 1.0 0.00 0.00 0.00 95 1013.2
20260905105710 73 157 0.0 0.0 0.00 0.00 0.00 95 1013.1
20260905105208 73 104 1.0 1.0 0.00 0.00 0.00 95 1013.0
20260905104704 73 181 3.0 3.0 0.00 0.00 0.00 95 1012.8
20260905104200 73 169 3.0 3.0 0.00 0.00 0.00 95 1012.8
20260905103655 73 162 2.0 2.0 0.00 0.00 0.00 95 1013.1
20260905103150 73 102 1.0 1.0 0.00 0.00 0.00 95 1013.2
20260905102646 73 96 0.0 0.0 0.00 0.00 0.00 96 1013.0
20260905102143 73 94 0.0 0.0 0.00 0.00 0.00 96 1013.3
20260905101641 73 61 0.0 0.0 0.00 0.00 0.00 96 1012.8
20260905101139 73 39 0.0 0.0 0.00 0.00 0.00 96 1013.2
20260905100636 73 103 0.0 0.0 0.00 0.00 0.00 96 1013.0
20260905100131 73 62 0.0 0.0 0.00 0.00 0.00 96 1012.9
20260905095625 73 112 0.0 0.0 0.00 0.00 0.00 96 1012.9
20260905095120 73 138 1.0 1.0 0.00 0.00 0.00 96 1012.9
20260905094615 73 78 0.0 0.0 0.00 0.00 0.00 96 1013.1
20260905094114 73 113 0.0 0.0 0.00 0.00 0.00 96 1013.0